STARLINK-31178, 59025

Orbit data source: Space-Track

STARLINK-31178, 59025 is a payload satellite owned by SpaceX/Seattle (US) in LEO that was launched on Sun, 25 Feb 2024 UTC via an FALCON 9 launch vehicle from the Air Force Eastern Test Range (AFETR). Payload-class satellites include a variety of spacecraft equipped with specific instruments for various scientific and technological missions. These include communications satellites like Starlink; space stations such as the ISS; scientific satellites like the Hubble; Earth observation satellites from companies like Planet Labs, Umbra, and HawkEye 360; GPS; miniature CubeSats for education and research; and military/defense satellites.

Loading next visibility...
Identifier
59025, 2024-038C
Orbit
LEO
Country
Flag of USUS
Related business
Manufacturer
SpaceX/Seattle
Mission
Operational Commercial Communications
Bus & Motor
STARLINK V2M, Unknown motor
Mass
730 kg wet, ~700 kg dry
Launch date (UTC)
2024-02-25 (2 years ago)
Launch vehicle
FALCON 9
Launch site
Air Force Eastern Test Range (AFETR)
Object type
Payload
Rocket body
Debris
Shape & HBR
Box + 2 Pan, 17.7 m
Radar Cross Section
33.884 m², Large (>1 m²)

Expand to show TLE details & history
Last TLE update: 2 days ago

TLE from 2 days ago
0 STARLINK-31178
1 59025U 24038C   26171.00268186  .00001580  00000-0  66915-4 0  9991
2 59025  43.0018 169.3781 0001519 275.3482  84.7196 15.27580125130297
Epoch: 2026-06-20T00:03Z
TLE epoch observation values (Epoch: 2026-06-20T00:03:51.712Z)
Latitude
-0.00005°
Longitude
-99.81098°
Altitude
482.729 km
Speed
7.626 km/s
True Right ascension
11h 17m 30s
True Declination
0° 00' 00"
Sunlit
Object was in daylight at epoch
Visualization orbit readout
Latitude
Unknown
Longitude
Unknown
Altitude
Unknown
Speed
Unknown
Apparent Right ascension
Unknown
Apparent Declination
Unknown
Sunlit
N/A
Visualization observer readout
Local Sidereal Time
21:36:01
Azimuth
Unknown
Elevation
Unknown
Doppler factor
Unknown
Orbital elements
Apogee altitude
486.036 km
Perigee altitude
483.951 km
Semi-major axis
6,863.131 km
Eccentricity
0.00015
Inclination
43.0018°
RAAN
169.3781°
Arg. of periapsis
275.3482°
True anomaly
84.73693°
Mean anomaly
84.7196°
Eccentric anomaly
84.72827°
Mean motion
3.81733 °/min
Orbital period
94.31 mins
BSTAR
0.000066915
Loading maneuver chart data...
Computing Atmospheric mass density...
Loading historical data...
Loading historical data...
Loading historical data...
Loading historical data...
Loading historical data...
Loading historical data...
Loading historical data...

Documentation

Showing up to 5 results
|